Lid_Strength_Index
1 5 1 5 10 11 14 12 9 9 10 8 6 7 9 8 9 12 2 1 1 0 -0 -1 -1 -1 -2 -2 -2 -2 -2 -2 -2 -2 -2 -2 -2 -2 -2 -2 -3 -2 -2 -2 -2 -2 -2 -2 -2
2 3 4 7 13 15 15 10 10 8 7 6 6 7 8 10 5 4 4 2 1 -0 -0 -0 -1 -1 -2 -2 -2 -2 -2 -2 -2 -2 -2 -2 -2 -2 -2 -2 -2 -2 -2 -2 -2 -2 -2 -2 -2
4 4 7 10 13 14 14 10 10 8 7 7 8 6 7 8 5 4 2 2 -0 -0 -0 -0 -1 -1 -1 -2 -2 -2 -2 -3 -3 -2 -2 -2 -2 -2 -2 -3 -3 -2 -2 -2 -2 -2 -2 -2 -1
7 5 7 12 14 11 10 9 7 8 8 6 7 9 6 3 4 3 3 1 0 0 -0 -0 -1 -1 -2 -2 -2 -2 -2 -2 -3 -3 -2 -2 -2 -2 -2 -2 -3 -2 -2 -2 -2 -2 -2 -1 -1
7 7 12 13 12 10 10 8 7 9 8 8 7 10 8 3 3 2 2 0 1 0 -0 -0 -1 -1 -1 -2 -2 -2 -2 -2 -3 -2 -2 -3 -2 -2 -2 -2 -2 -2 -2 -2 -2 -2 -1 -1 -1
10 8 13 15 13 10 9 8 7 8 8 7 8 8 7 3 5 3 1 1 0 0 -0 -0 1 -0 -1 -1 -1 -2 -2 -2 -2 -3 -3 -2 -3 -2 -2 -2 -2 -2 -2 -2 -1 -1 -1 -1 -0
11 11 13 13 12 11 9 8 9 8 7 8 6 10 8 5 6 3 2 0 0 -0 -0 -0 -0 0 1 -0 -1 -1 -2 -2 -2 -3 -3 -3 -3 -3 -2 -2 -2 -2 -2 -1 -1 -1 -1 -1 -0
10 10 12 12 12 12 8 8 7 8 8 6 5 9 9 4 6 3 1 1 1 0 -0 0 0 0 0 -0 1 -0 -1 -2 -2 -2 -1 -1 -1 -2 -2 -2 -2 -2 -2 -2 -1 -1 -1 -0 -0
9 13 13 12 12 11 8 8 7 7 7 6 6 6 4 3 5 2 2 2 1 1 0 -0 0 0 0 0 1 1 1 -0 -1 -1 0 1 1 0 -0 -1 -2 -3 -2 -2 -1 -1 -1 -1 -0
12 13 12 9 11 10 8 8 8 8 9 8 7 4 3 5 5 4 4 3 3 2 1 0 0 0 0 -1 1 1 0 1 0 0 1 1 2 1 0 1 -0 -1 -1 -2 -2 -2 -1 -0 2
12 13 10 11 9 10 10 10 9 9 10 7 8 6 4 5 5 4 3 3 3 2 1 1 0 -0 0 0 1 1 1 1 1 1 1 1 1 2 2 2 1 1 2 1 0 0 0 1 2
11 10 10 10 8 10 10 9 10 9 8 6 5 4 4 4 5 4 4 3 3 2 1 1 0 0 -0 0 0 1 1 1 1 1 1 1 1 2 2 3 2 2 2 3 3 3 2 2 2
10 10 9 8 8 9 9 11 10 9 7 6 4 4 5 4 4 3 4 3 3 2 2 1 1 1 1 1 1 1 1 1 1 1 1 1 2 2 3 3 3 3 3 3 3 3 3 3 2
8 8 8 9 9 8 10 11 11 10 7 6 5 5 5 4 4 4 3 4 3 2 2 1 1 1 1 2 2 1 0 -0 1 1 1 0 1 1 2 2 3 3 3 3 3 3 3 2 2
8 10 10 9 9 10 10 12 12 10 8 7 6 6 5 4 4 4 3 3 3 2 2 2 1 1 1 1 2 1 1 0 0 1 1 1 1 1 1 2 2 2 2 2 2 2 3 3 2
11 12 14 11 9 9 10 13 11 10 10 10 7 6 6 5 4 3 3 2 2 2 2 2 1 1 1 1 1 1 1 1 1 1 1 1 1 1 1 2 2 2 2 2 3 3 3 3 3
12 17 15 13 9 9 10 12 10 9 11 12 11 6 6 5 4 3 3 3 2 2 2 2 2 2 1 1 1 1 1 1 1 1 1 1 1 1 1 1 2 2 2 2 2 3 3 3 3
17 15 14 14 11 10 11 12 11 10 10 11 11 10 7 6 5 3 3 3 2 2 2 2 2 2 2 1 0 0 1 1 0 1 2 1 1 1 1 2 2 2 2 2 2 3 3 3 3
14 15 14 13 10 11 12 11 10 8 9 10 10 11 12 10 5 3 3 2 2 2 2 2 2 2 2 2 1 1 1 1 1 1 1 1 1 1 1 1 2 2 2 2 2 2 1 2 2
14 16 16 14 11 11 12 12 10 8 8 8 8 10 10 10 10 4 3 3 3 2 2 2 2 2 2 1 2 2 2 1 1 0 0 1 1 1 1 1 2 2 2 2 2 2 2 2 2
14 16 16 16 14 13 13 14 12 10 10 8 7 8 10 10 10 6 4 4 3 3 3 3 2 2 2 2 2 2 2 2 1 1 1 1 1 1 1 1 2 2 2 1 1 2 2 3 2
16 12 13 14 15 18 13 19 14 11 11 10 8 8 9 10 11 9 4 6 6 6 3 3 2 2 2 2 2 2 2 3 2 1 2 1 1 1 1 1 2 2 2 2 1 1 2 2 3
14 12 12 12 13 15 17 17 16 12 12 11 9 8 9 12 12 13 12 11 11 11 9 8 4 4 3 2 1 2 2 2 1 2 2 2 1 1 1 1 2 2 2 2 2 2 2 2 2
10 12 13 12 13 19 16 16 19 16 12 10 9 8 11 13 13 13 12 11 11 10 9 8 10 9 9 8 7 5 2 2 3 3 3 2 2 2 1 1 2 2 2 2 2 2 2 2 2
12 14 18 20 20 20 15 16 16 14 13 13 10 9 9 12 12 12 11 11 10 10 11 9 9 11 10 9 9 9 8 6 3 2 2 3 3 3 2 2 2 1 2 2 2 2 2 3 2
13 14 18 23 21 20 16 18 16 11 14 13 12 11 12 12 12 11 11 11 10 11 10 10 10 10 10 10 10 10 9 6 4 5 4 3 2 2 2 2 2 1 1 1 1 1 1 2 2
13 15 12 17 19 18 17 16 14 13 14 13 12 11 11 11 11 11 10 10 10 10 10 10 10 11 11 11 10 10 10 10 9 8 6 6 6 4 3 2 2 1 2 2 2 1 1 1 2
11 10 16 15 24 24 19 19 17 15 14 12 12 11 11 10 10 10 10 10 10 11 10 11 11 11 11 11 11 11 11 11 11 10 10 10 9 8 7 7 5 4 2 2 3 2 3 2 2
13 14 14 13 17 20 21 20 16 15 12 12 11 10 10 10 10 10 10 10 11 11 11 12 12 12 12 12 11 11 11 11 11 11 11 11 10 10 10 9 8 7 7 6 5 4 4 4 4
11 12 13 17 18 18 17 19 13 13 11 10 11 10 11 10 11 11 11 11 11 11 12 13 13 13 13 12 12 12 12 12 12 12 12 12 11 11 11 10 10 10 9 9 8 8 7 6 6